Change the Weather History Date:

Monday, September 16, 2013

  Actual Average Record
Temperature  
Mean Temperature 50 °F -  
Max Temperature 64 °F 68 °F 91 °F (1948)
Min Temperature 37 °F 45 °F 29 °F (1916)
Degree Days  
Heating Degree Days 15    
Moisture  
Dew Point 38 °F    
Average Humidity 68    
Maximum Humidity 93    
Minimum Humidity 37    
Precipitation  
Precipitation 0.00 in - - ()
Sea Level Pressure  
Sea Level Pressure 30.39 in    
Wind  
Wind Speed 5 mph (East)    
Max Wind Speed 10 mph    
Max Gust Speed -    
Visibility 10 miles    
Events      
Averages and records for this station are not official NWS values.
T = Trace of Precipitation, MM = Missing Value Source: NWS Daily Summary

Daily Weather History Graph

Daily Weather History Graph

Search for Another Location

Airport or City:

Trip Planner

Search our weather history database for the weather conditions in past years. The results will help you decide how hot, cold, wet, or windy it might be!

Date:

Astronomy

Sep. 16, 2013 Rise Set
Actual Time 6:41 AM CDT 7:09 PM CDT
Civil Twilight 6:11 AM CDT 7:38 PM CDT
Nautical Twilight 5:37 AM CDT 8:12 PM CDT
Astronomical Twilight 5:01 AM CDT 8:48 PM CDT
Moon 5:22 PM CDT (9/16) 3:21 AM CDT (9/16)
Length of Visible Light 13h 26m
Length of Day
12h 27m
Waxing Gibbous, 90% of the Moon is Illuminated
Sep 16
Waxing Gibbous
Sep 19
Full
Sep 26
Last Quarter
Oct 4
New
Oct 11
First Quarter

Hourly Weather History & Observations

Time (CDT) Temp. Windchill Dew Point Humidity Pressure Visibility Wind Dir Wind Speed Gust Speed Precip Events Conditions
12:05 AM 46.4 °F 42.9 °F 39.2 °F 76% 30.30 in 10.0 mi NE 6.9 mph - N/A   Scattered Clouds
12:54 AM 45.0 °F 41.8 °F 39.0 °F 80% 30.33 in 10.0 mi NE 5.8 mph - N/A   Clear
1:54 AM 43.0 °F 40.3 °F 39.0 °F 86% 30.35 in 10.0 mi NNE 4.6 mph - N/A   Clear
2:54 AM 41.0 °F 38.0 °F 37.9 °F 89% 30.36 in 10.0 mi NE 4.6 mph - N/A   Clear
3:54 AM 39.9 °F 36.7 °F 37.0 °F 89% 30.37 in 10.0 mi NNE 4.6 mph - N/A   Clear
4:54 AM 39.9 °F - 37.9 °F 93% 30.39 in 10.0 mi Calm Calm - N/A   Clear
5:54 AM 37.0 °F - 35.1 °F 93% 30.41 in 10.0 mi Calm Calm - N/A   Clear
6:54 AM 37.9 °F - 36.0 °F 93% 30.43 in 10.0 mi Calm Calm - N/A   Clear
7:44 AM 42.8 °F 41.1 °F 39.2 °F 87% 30.41 in 6.0 mi NNE 3.5 mph - N/A   Partly Cloudy
7:54 AM 44.1 °F - 39.9 °F 85% 30.43 in 10.0 mi Calm Calm - N/A   Partly Cloudy
8:54 AM 48.0 °F - 39.9 °F 74% 30.44 in 10.0 mi NE 8.1 mph - N/A   Clear
9:54 AM 52.0 °F - 39.9 °F 63% 30.45 in 10.0 mi East 10.4 mph - N/A   Clear
10:54 AM 54.0 °F - 39.0 °F 57% 30.44 in 10.0 mi East 6.9 mph - N/A   Clear
11:54 AM 57.0 °F - 37.9 °F 49% 30.44 in 10.0 mi East 9.2 mph - N/A   Clear
12:54 PM 57.9 °F - 39.0 °F 49% 30.43 in 10.0 mi SE 5.8 mph - N/A   Clear
1:54 PM 60.1 °F - 36.0 °F 41% 30.42 in 10.0 mi South 9.2 mph - N/A   Clear
2:54 PM 61.0 °F - 35.1 °F 38% 30.40 in 10.0 mi South 3.5 mph - N/A   Clear
3:54 PM 63.0 °F - 36.0 °F 37% 30.38 in 10.0 mi Variable 4.6 mph - N/A   Clear
4:54 PM 63.0 °F - 36.0 °F 37% 30.37 in 10.0 mi SE 5.8 mph - N/A   Clear
5:54 PM 62.1 °F - 37.0 °F 39% 30.36 in 10.0 mi ESE 6.9 mph - N/A   Clear
6:54 PM 57.0 °F - 39.0 °F 51% 30.35 in 10.0 mi East 5.8 mph - N/A   Clear
7:54 PM 53.1 °F - 39.9 °F 61% 30.34 in 10.0 mi East 4.6 mph - N/A   Clear
8:54 PM 50.0 °F - 39.9 °F 68% 30.36 in 10.0 mi ESE 4.6 mph - N/A   Clear
9:54 PM 48.9 °F - 41.0 °F 74% 30.36 in 10.0 mi ESE 4.6 mph - N/A   Clear
10:54 PM 46.9 °F - 39.9 °F 77% 30.36 in 10.0 mi ESE 5.8 mph - N/A   Clear
11:54 PM 46.9 °F - 42.1 °F 83% 30.36 in 10.0 mi ESE 6.9 mph - N/A   Clear